Regional Weather Roundup
Issued by NWS

Home | Current Version | Previous Version | Graphics & Text | Print | Product List | Glossary On
Versions: 1 2 3 4 5 6 7 8 9 10 11 12 13 14 15 16 17 18 19 20 21 22 23 24 25 26 27 28 29 30 31 32 33 34 35 36 37 38 39 40 41 42 43 44 45 46 47 48 49 50
000
ASUS45 KSLC 050010
RWRUT

UTAH REGIONAL WEATHER ROUNDUP
NATIONAL WEATHER SERVICE SALT LAKE CITY UT
600 PM MDT SAT JUL 04 2015

UTZ001>011-023>025-050100-

NORTHERN UTAH

CITY           SKY/WX    TMP DP  RH WIND       PRES   REMARKS
BRIGHAM CITY   MOSUNNY   97  34  10 S8        29.85F HX  92
HILL AFB       PTSUNNY   92  44  19 W6        29.91F
LOGAN          SUNNY     96  39  13 S5        29.86F HX  91
OGDEN          PTSUNNY   96  41  15 NW6       29.87F HX  92
PROVO AIRPORT  PTSUNNY   86  55  35 S21       29.91R
SALT LAKE CITY PTSUNNY   96  48  19 NW10      29.84F HX  92
VERNAL         CLOUDY    89  47  23 SW7       29.95R
WENDOVER       CLOUDY    90  46  22 NW20      29.89F
HEBER CITY     CLOUDY    90  37  15 SW8       29.97F
WEST JORDAN    SUNNY     93  46  20 NW6       29.89F

$$

UTZ012>022-026-027-050100-

SOUTHERN/CENTRAL UTAH

CITY           SKY/WX    TMP DP  RH WIND       PRES   REMARKS
BLANDING       MOSUNNY   89  45  21 SW7       30.09S
BRYCE CANYON   LGT RAIN  70  54  56 CALM      30.22S
CEDAR CITY     CLOUDY    81  47  30 VRB3      30.07F
DELTA          CLOUDY    81  49  32 S25G32    29.97F
HANKSVILLE     PTSUNNY   95  43  16 SE6       29.88F HX  91
MILFORD        CLOUDY    87  47  24 SE15      30.00F
MOAB/CYNLANDS  MOSUNNY   95  48  20 CALM      29.86F HX  91
PRICE          CLOUDY    84  46  26 S10       30.01F
ST GEORGE      CLOUDY    93  48  21 W14       29.89F HX  90
KANAB          CLOUDY    82  52  34 SW5       30.08F

$$

REGIONAL REPORTS     COLORADO/ARIZONA

CITY           SKY/WX    TMP DP  RH WIND       PRES   REMARKS
CRAIG, CO      CLOUDY    74  56  53 SE6       30.08F
GRAND JUNCTION PTSUNNY   93  47  20 SE8       29.91S
RIFLE          CLOUDY    90  46  21 S16       29.96S
MONTROSE       CLOUDY    84  48  28 S9        30.04S
CORTEZ         MOSUNNY   82  48  30 NE12G21   30.06R
PAGE, AZ       PTSUNNY   90  51  26 VRB6      29.94F
GRAND CANYON   PTSUNNY   79  48  33 W12       30.17S
KINGMAN        CLOUDY    90  49  24 NW7       29.94F
FLAGSTAFF      PTSUNNY   69  55  60 VRB5      30.22F

$$

REGIONAL REPORTS    NEVADA/IDAHO/WYOMING

CITY           SKY/WX    TMP DP  RH WIND       PRES   REMARKS
LAS VEGAS, NV  PTSUNNY  101  48  16 VRB7      29.76F HX  97
ELY            CLOUDY    78  43  28 SW16G25   30.11S
ELKO           CLOUDY    78  50  37 SW17G25   30.04F
POCATELLO, ID  SUNNY     93  43  17 SW12      29.87F
BURLEY         PTSUNNY   94  44  17 W8        29.84F HX  90
EVANSTON, WY   PTSUNNY   83  44  25 NE6       30.11S
ROCK SPRINGS   CLOUDY    86  42  21 W15G23    30.05S
KEMMERER       MOSUNNY  N/A N/A N/A W9G16     30.12S

$$



USA.gov is the U.S. government's official web portal to all federal, state and local government web resources and services.